sat.trackr.live / text

‹ back to catalog

STARLINK-31646

NORAD 59265 · 2024-050M

PAYLOAD ACTIVE UNKNOWN

§ Identity

Operator
Country
US
Launch date
2024-03-19
Launch site
AFWTR
Launch vehicle
Mass (kg)
RCS (m²)

Purposes: comms

External: N2YO · Heavens-Above · Gunter

§ Orbital elements

Epoch: 2026-05-24T12:07:32.212416Z

Period
94.11 min
Inclination
53.1599°
Eccentricity
0.0001101
Mean motion
15.30190721 rev/d
Perigee alt
474.5 km
Apogee alt
476.0 km
Semi-major
6,853.4 km
B*
8.3110e-6
RAAN
189.0229°
Arg perigee
90.1030°
Mean anomaly
270.0097°
Rev number
12,215

§ Raw data

STARLINK-316461 59265U 24050M   26144.50523394 -.00000113  00000+0  83110-5 0  99992 59265  53.1599 189.0229 0001101  90.1030 270.0097 15.30190721122153

JSON: /api/v1/satellites/59265 · /tle

For live sub-satellite position, see the globe view (requires WebGL).

§ Visibility from observer

Set your observer location to see the next 7 days of passes ≥ 10°. The values pass through the URL so the page stays shareable.

No JS? Fill the form by hand. The geolocation button needs JavaScript.